QPF
0.00 0.00 0.00 0.00 0.00 0.00 0.00 0.00 0.00 0.00 0.00 0.00 0.00 0.00 0.00 0.00 0.00 0.00 0.00 0.00 0.00 0.00 0.00 0.00 0.01 0.01 0.01 0.03 0.02 0.04 0.06 0.05 0.04
0.00 0.00 0.00 0.00 0.00 0.00 0.00 0.00 0.00 0.00 0.00 0.00 0.00 0.00 0.00 0.00 0.00 0.00 0.00 0.00 0.00 0.00 0.00 0.00 0.00 0.00 0.00 0.00 0.01 0.03 0.05 0.06 0.06
0.00 0.00 0.00 0.00 0.00 0.00 0.00 0.00 0.00 0.00 0.00 0.00 0.00 0.00 0.00 0.00 0.00 0.00 0.00 0.00 0.00 0.00 0.00 0.00 0.00 0.00 0.00 0.00 0.00 0.00 0.00 0.01 0.07
0.00 0.00 0.00 0.00 0.00 0.00 0.00 0.00 0.00 0.00 0.00 0.00 0.00 0.00 0.00 0.00 0.00 0.00 0.00 0.00 0.00 0.00 0.00 0.00 0.00 0.00 0.00 0.00 0.00 0.00 0.00 0.00 0.00
0.00 0.00 0.00 0.00 0.00 0.00 0.00 0.00 0.00 0.00 0.00 0.00 0.00 0.00 0.00 0.00 0.00 0.00 0.00 0.00 0.00 0.00 0.00 0.00 0.00 0.00 0.00 0.00 0.00 0.00 0.00 0.00 0.00
0.00 0.00 0.00 0.00 0.00 0.00 0.00 0.00 0.00 0.00 0.00 0.00 0.00 0.00 0.00 0.00 0.00 0.00 0.00 0.00 0.00 0.00 0.00 0.00 0.00 0.00 0.00 0.00 0.00 0.00 0.00 0.00 0.00
0.00 0.00 0.00 0.00 0.00 0.00 0.00 0.00 0.00 0.00 0.00 0.00 0.00 0.00 0.00 0.00 0.00 0.00 0.00 0.00 0.00 0.01 0.01 0.01 0.02 0.01 0.00 0.00 0.00 0.00 0.00 0.00 0.00
0.00 0.00 0.00 0.00 0.00 0.00 0.00 0.00 0.00 0.00 0.00 0.00 0.00 0.00 0.00 0.00 0.00 0.00 0.00 0.00 0.01 0.01 0.01 0.00 0.00 0.01 0.01 0.02 0.02 0.02 0.02 0.01 0.01
0.00 0.00 0.00 0.00 0.00 0.00 0.00 0.00 0.00 0.00 0.00 0.00 0.00 0.00 0.00 0.00 0.00 0.00 0.00 0.00 0.00 0.00 0.00 0.00 0.00 0.00 0.01 0.02 0.03 0.01 0.01 0.01 0.01
0.00 0.00 0.00 0.00 0.00 0.00 0.00 0.00 0.00 0.00 0.00 0.00 0.00 0.00 0.00 0.00 0.00 0.00 0.00 0.00 0.00 0.00 0.00 0.00 0.00 0.00 0.00 0.01 0.01 0.01 0.01 0.01 0.01
0.00 0.00 0.00 0.00 0.00 0.00 0.00 0.00 0.00 0.00 0.00 0.00 0.00 0.00 0.00 0.00 0.00 0.00 0.00 0.00 0.00 0.00 0.00 0.00 0.00 0.00 0.00 0.00 0.01 0.00 0.00 0.00 0.00
0.00 0.00 0.00 0.00 0.00 0.00 0.00 0.00 0.00 0.00 0.00 0.00 0.00 0.00 0.00 0.00 0.00 0.00 0.00 0.00 0.00 0.00 0.00 0.00 0.00 0.00 0.00 0.00 0.00 0.00 0.00 0.00 0.00
0.00 0.00 0.00 0.00 0.00 0.00 0.00 0.00 0.00 0.00 0.00 0.00 0.00 0.00 0.00 0.00 0.00 0.00 0.00 0.00 0.00 0.00 0.00 0.00 0.00 0.00 0.00 0.00 0.00 0.00 0.00 0.00 0.00
0.00 0.00 0.00 0.00 0.00 0.00 0.00 0.00 0.00 0.00 0.00 0.00 0.00 0.00 0.00 0.00 0.00 0.00 0.00 0.00 0.00 0.00 0.00 0.00 0.00 0.00 0.00 0.00 0.00 0.00 0.00 0.00 0.00
0.00 0.00 0.00 0.00 0.00 0.00 0.00 0.00 0.00 0.00 0.00 0.00 0.00 0.00 0.00 0.00 0.00 0.00 0.00 0.00 0.00 0.00 0.00 0.00 0.00 0.00 0.00 0.00 0.00 0.00 0.00 0.00 0.00
0.00 0.00 0.00 0.00 0.00 0.00 0.00 0.00 0.00 0.00 0.00 0.00 0.00 0.00 0.00 0.00 0.00 0.00 0.00 0.00 0.00 0.00 0.00 0.00 0.00 0.00 0.00 0.00 0.00 0.00 0.00 0.00 0.00
0.00 0.00 0.00 0.00 0.00 0.00 0.00 0.00 0.00 0.00 0.00 0.00 0.00 0.00 0.00 0.00 0.00 0.00 0.00 0.00 0.00 0.00 0.00 0.00 0.00 0.00 0.00 0.00 0.00 0.00 0.00 0.00 0.00
0.00 0.00 0.00 0.00 0.00 0.00 0.00 0.00 0.00 0.00 0.00 0.00 0.00 0.00 0.00 0.00 0.00 0.00 0.00 0.00 0.00 0.00 0.00 0.00 0.00 0.00 0.00 0.00 0.00 0.00 0.00 0.00 0.00
0.00 0.00 0.00 0.00 0.00 0.00 0.00 0.00 0.00 0.00 0.00 0.00 0.00 0.00 0.00 0.00 0.00 0.00 0.00 0.00 0.00 0.00 0.00 0.00 0.00 0.00 0.00 0.00 0.00 0.00 0.00 0.00 0.00
0.00 0.00 0.00 0.00 0.00 0.00 0.00 0.00 0.00 0.00 0.00 0.00 0.00 0.00 0.00 0.00 0.00 0.00 0.00 0.00 0.00 0.00 0.00 0.00 0.00 0.00 0.00 0.00 0.00 0.00 0.00 0.00 0.00
MSLP
1019.11 1019.07 1019.06 1019.04 1018.91 1018.76 1018.68 1018.62 1018.60 1018.52 1018.37 1018.20 1018.04 1017.90 1017.64 1017.35 1017.12 1017.07 1017.09 1017.31 1017.05 1016.96 1016.88 1016.75 1016.63 1016.59 1016.53 1016.47 1016.30 1016.12 1016.21 1016.22 1016.17
1019.45 1019.44 1019.44 1019.35 1019.21 1019.04 1018.94 1018.86 1018.80 1018.70 1018.56 1018.36 1018.22 1018.04 1017.78 1017.60 1017.54 1017.29 1017.39 1017.37 1017.03 1016.93 1016.98 1017.00 1016.92 1016.84 1016.72 1016.63 1016.51 1016.28 1016.20 1016.21 1016.20
1019.81 1019.76 1019.73 1019.67 1019.51 1019.35 1019.23 1019.11 1019.03 1018.93 1018.76 1018.56 1018.38 1018.14 1017.89 1017.71 1017.45 1017.56 1017.74 1017.54 1017.21 1017.15 1017.26 1017.26 1017.17 1017.03 1016.88 1016.82 1016.73 1016.57 1016.45 1016.31 1016.23
1020.04 1020.10 1020.02 1019.96 1019.81 1019.65 1019.53 1019.36 1019.25 1019.12 1018.96 1018.73 1018.50 1018.26 1018.02 1017.94 1017.62 1017.75 1017.92 1017.78 1017.47 1017.41 1017.44 1017.37 1017.28 1017.16 1017.07 1016.99 1016.87 1016.76 1016.59 1016.50 1016.34
1020.19 1020.33 1020.33 1020.23 1020.07 1019.92 1019.76 1019.57 1019.34 1019.20 1019.11 1018.93 1018.62 1018.43 1018.11 1017.94 1017.81 1018.19 1018.23 1018.02 1017.71 1017.77 1017.77 1017.63 1017.44 1017.29 1017.14 1017.05 1016.94 1016.82 1016.71 1016.61 1016.51
1020.32 1020.36 1020.37 1020.29 1020.11 1019.98 1019.78 1019.59 1019.39 1019.18 1018.96 1018.94 1018.64 1018.46 1018.33 1017.96 1018.28 1018.46 1018.40 1018.22 1017.91 1017.94 1017.84 1017.74 1017.54 1017.41 1017.32 1017.18 1016.91 1016.73 1016.70 1016.64 1016.58
1020.18 1020.28 1020.33 1020.26 1020.04 1019.92 1019.78 1019.59 1019.48 1019.30 1019.16 1019.08 1018.75 1018.63 1018.41 1018.28 1018.64 1018.71 1018.60 1018.42 1018.17 1018.08 1018.01 1017.89 1017.73 1017.59 1017.42 1017.23 1016.96 1016.84 1016.64 1016.66 1016.54
1020.32 1020.43 1020.42 1020.33 1020.18 1020.10 1019.89 1019.77 1019.66 1019.51 1019.36 1019.25 1019.06 1018.81 1018.64 1018.59 1018.87 1019.02 1018.93 1018.75 1018.48 1018.40 1018.32 1018.14 1018.01 1017.79 1017.68 1017.51 1017.32 1017.20 1017.04 1016.84 1016.71
1020.70 1020.73 1020.65 1020.62 1020.54 1020.46 1020.24 1020.16 1019.90 1019.62 1019.41 1019.29 1019.19 1018.95 1018.80 1018.69 1019.13 1019.28 1019.33 1019.24 1019.01 1018.84 1018.68 1018.51 1018.41 1018.12 1017.89 1017.71 1017.62 1017.54 1017.36 1017.20 1016.98
1020.98 1020.92 1020.85 1020.86 1020.80 1020.73 1020.56 1020.38 1020.15 1019.89 1019.66 1019.43 1019.28 1019.16 1018.97 1018.85 1019.29 1019.51 1019.48 1019.60 1019.45 1019.28 1019.11 1018.85 1018.65 1018.42 1018.23 1018.03 1017.91 1017.72 1017.70 1017.51 1017.23
1021.19 1021.17 1021.16 1021.15 1021.03 1020.86 1020.69 1020.54 1020.30 1020.07 1019.82 1019.59 1019.29 1019.22 1019.08 1018.94 1019.28 1019.45 1019.69 1019.74 1019.67 1019.53 1019.39 1019.21 1019.05 1018.86 1018.53 1018.28 1018.13 1017.99 1017.97 1017.84 1017.60
1021.29 1021.38 1021.50 1021.41 1021.18 1021.01 1020.86 1020.63 1020.40 1020.32 1020.03 1019.87 1019.42 1019.32 1019.21 1019.42 1019.39 1019.61 1019.68 1019.89 1019.87 1019.80 1019.66 1019.46 1019.29 1019.09 1018.78 1018.56 1018.41 1018.25 1018.18 1017.95 1017.80
1021.55 1021.70 1021.76 1021.50 1021.32 1021.21 1021.13 1020.94 1020.81 1020.66 1020.53 1020.20 1019.96 1019.89 1019.76 1019.68 1019.85 1020.03 1020.01 1020.01 1020.09 1020.08 1019.98 1019.84 1019.70 1019.38 1019.18 1019.00 1018.75 1018.62 1018.33 1018.11 1017.88
1021.72 1021.86 1021.89 1021.65 1021.62 1021.59 1021.40 1021.28 1021.09 1020.99 1020.81 1020.37 1020.15 1020.13 1020.11 1020.09 1020.21 1020.25 1020.14 1020.16 1020.20 1020.15 1019.95 1019.88 1020.01 1019.95 1019.68 1019.41 1019.18 1018.89 1018.69 1018.22 1017.95
1021.86 1021.94 1021.96 1021.86 1021.94 1021.96 1021.71 1021.56 1021.30 1021.22 1021.05 1020.59 1020.19 1020.14 1020.04 1020.12 1020.27 1020.18 1020.02 1020.16 1020.22 1020.14 1019.98 1019.85 1019.93 1019.86 1019.83 1019.78 1019.50 1019.18 1018.78 1018.46 1017.99
1022.11 1022.20 1022.21 1022.18 1022.28 1022.21 1022.08 1021.92 1021.76 1021.58 1021.16 1020.92 1020.64 1020.32 1020.15 1020.26 1020.26 1020.08 1020.12 1020.17 1020.19 1020.15 1020.12 1020.10 1020.03 1019.96 1019.76 1019.81 1019.69 1019.54 1019.11 1018.61 1018.11
1022.24 1022.46 1022.52 1022.46 1022.53 1022.42 1022.40 1022.34 1022.36 1021.95 1021.56 1021.80 1021.57 1021.14 1020.90 1020.58 1020.32 1020.26 1020.32 1020.34 1020.25 1020.16 1020.01 1020.05 1020.07 1020.13 1020.04 1019.76 1019.62 1019.60 1019.35 1018.81 1018.23
1022.50 1022.53 1022.57 1022.58 1022.56 1022.66 1022.57 1022.57 1022.56 1022.58 1022.05 1021.81 1021.99 1021.91 1021.96 1021.39 1020.53 1020.33 1020.30 1020.20 1020.16 1019.98 1019.85 1019.68 1019.82 1019.96 1020.05 1019.93 1019.89 1019.69 1019.37 1018.95 1018.41
1022.50 1022.54 1022.57 1022.62 1022.68 1022.79 1022.61 1022.40 1022.43 1022.47 1022.54 1022.18 1021.97 1021.92 1022.04 1022.10 1021.83 1020.82 1020.57 1020.47 1020.25 1020.08 1019.78 1019.59 1019.47 1019.55 1019.77 1019.80 1019.77 1019.52 1019.43 1018.96 1018.51
1022.53 1022.56 1022.56 1022.58 1022.62 1022.64 1022.69 1022.73 1022.65 1022.62 1022.67 1022.61 1022.48 1022.18 1021.95 1021.85 1022.15 1021.78 1021.08 1020.69 1020.35 1020.18 1019.86 1019.60 1019.34 1019.22 1019.35 1019.51 1019.65 1019.57 1019.26 1018.87 1018.50
Thickness
5704 5703 5702 5700 5699 5698 5696 5693 5691 5689 5686 5684 5681 5677 5676 5675 5674 5672 5669 5667 5666 5665 5664 5664 5665 5665 5665 5666 5667 5669 5669 5670 5671
5699 5698 5696 5695 5693 5692 5690 5688 5685 5683 5680 5678 5674 5672 5671 5670 5669 5668 5665 5663 5663 5662 5659 5658 5658 5658 5658 5659 5660 5662 5663 5663 5664
5694 5693 5690 5689 5688 5686 5684 5682 5679 5677 5674 5671 5668 5668 5668 5667 5667 5663 5660 5658 5659 5657 5655 5653 5651 5651 5652 5652 5653 5653 5654 5656 5657
5688 5686 5684 5682 5681 5680 5678 5676 5674 5670 5667 5665 5664 5664 5664 5664 5664 5659 5656 5654 5654 5652 5650 5649 5647 5647 5646 5646 5646 5646 5647 5648 5650
5683 5681 5679 5677 5676 5674 5673 5671 5669 5665 5661 5660 5660 5660 5661 5661 5660 5655 5651 5649 5649 5646 5643 5642 5642 5642 5641 5640 5640 5639 5640 5640 5641
5680 5678 5675 5673 5672 5670 5668 5667 5664 5661 5659 5657 5657 5656 5656 5657 5653 5650 5647 5645 5644 5641 5640 5638 5637 5636 5634 5634 5634 5634 5634 5633 5634
5677 5675 5672 5670 5668 5666 5665 5662 5659 5657 5655 5654 5654 5654 5653 5652 5647 5644 5641 5639 5638 5636 5634 5633 5631 5630 5629 5628 5628 5628 5628 5628 5628
5673 5670 5668 5665 5663 5662 5660 5657 5655 5653 5652 5651 5650 5650 5649 5648 5643 5637 5635 5633 5631 5629 5627 5625 5623 5622 5621 5620 5621 5620 5620 5621 5622
5668 5665 5663 5661 5658 5656 5654 5652 5650 5649 5648 5647 5646 5646 5645 5643 5638 5632 5628 5625 5624 5622 5620 5617 5615 5614 5612 5612 5611 5612 5612 5612 5614
5661 5659 5657 5655 5652 5650 5648 5647 5645 5644 5643 5643 5642 5640 5639 5637 5632 5628 5624 5620 5617 5615 5612 5610 5607 5605 5603 5603 5603 5604 5604 5605 5607
5656 5653 5651 5648 5646 5644 5643 5642 5641 5640 5639 5638 5638 5636 5634 5631 5626 5622 5617 5614 5612 5609 5606 5604 5601 5598 5596 5594 5595 5596 5596 5598 5599
5650 5648 5644 5642 5640 5638 5637 5637 5636 5634 5634 5633 5632 5630 5628 5623 5620 5617 5613 5609 5606 5603 5600 5598 5595 5592 5591 5588 5587 5588 5589 5592 5593
5643 5640 5637 5636 5634 5632 5631 5630 5629 5627 5625 5625 5624 5621 5619 5617 5614 5610 5607 5605 5601 5598 5594 5591 5589 5587 5584 5581 5581 5581 5583 5584 5586
5637 5633 5630 5629 5626 5624 5623 5622 5621 5619 5618 5619 5618 5616 5614 5610 5606 5603 5601 5598 5594 5592 5589 5586 5582 5579 5577 5575 5573 5574 5575 5578 5580
5629 5626 5623 5621 5618 5615 5614 5614 5614 5612 5610 5613 5613 5610 5608 5603 5600 5598 5595 5591 5588 5585 5584 5582 5578 5574 5570 5568 5567 5567 5568 5569 5573
5620 5617 5614 5612 5608 5606 5605 5604 5602 5602 5603 5603 5602 5602 5600 5596 5593 5591 5588 5585 5581 5579 5577 5574 5572 5569 5566 5563 5561 5560 5561 5563 5565
5611 5608 5605 5602 5599 5597 5595 5593 5591 5592 5592 5587 5586 5585 5586 5586 5585 5582 5579 5575 5573 5570 5568 5565 5563 5561 5559 5558 5556 5554 5554 5555 5559
5602 5599 5596 5593 5590 5586 5585 5583 5580 5576 5579 5578 5573 5568 5564 5566 5574 5573 5570 5568 5565 5563 5561 5560 5557 5554 5551 5549 5548 5546 5547 5548 5551
5593 5590 5586 5583 5580 5577 5575 5574 5572 5569 5565 5566 5565 5562 5558 5551 5550 5558 5558 5555 5553 5553 5552 5551 5550 5547 5544 5541 5540 5540 5539 5540 5542
5583 5580 5576 5574 5571 5568 5565 5561 5559 5557 5554 5550 5548 5547 5546 5544 5538 5536 5538 5540 5539 5539 5539 5539 5540 5539 5536 5533 5530 5529 5531 5532 5534